[[{"header":{"parameterUnit":"m.s-1","parameterCategory":1,"la1":30.2991,"la2":30.254,"lo1":-89.0895,"lo2":-89.0444,"dy":0.0017,"dx":0.0017,"nx":28,"ny":28,"refTime":"2023-09-15T09:00:00:Z","depth":0,"parameterNumber":2,"parameterNumberName":"U-component_of_WINDS"},"data":[0,0,0,0,0,0,0,0,0,0,0,0,0,0,0,0,0,0,0,0,0,0,0,0,0,0,0,0,0,0,0,0,0,0,0,0,0,0,0,0,0,0,0,0,0,0,0,0,0,0,0,0,0,0,0,0,0,0,-2.0296,-2.0296,0,-2.0243,-2.0242,-2.0241,-2.011,-2.0107,-2.0105,-2.0102,-2.005,-2.0051,-2.0052,0,0,0,0,0,0,0,0,0,0,0,0,0,-2.0288,-2.0289,-2.0297,-2.0296,-2.0295,-2.0243,-2.0242,-2.0241,-2.0111,-2.0107,-2.0104,-2.0101,-2.0049,-2.0051,-2.0052,0,0,0,0,0,0,0,0,0,0,0,0,0,-2.0269,-2.0289,-2.0297,-2.0224,-2.0216,-2.0243,-2.0242,-2.0241,-2.0111,-2.0107,-2.0103,-2.0099,-2.0049,-2.0051,-2.0052,-2.0146,0,0,-2.0058,-2.0059,0,0,0,0,0,0,0,0,-2.027,-2.0269,-2.0235,-2.0229,-2.0221,-2.0179,-2.022,-2.0209,-2.0112,-2.0151,-2.0102,-2.0097,-2.0096,-2.0094,-2.0093,-2.0144,-2.0142,-2.0058,-2.0059,-2.006,-2.006,0,0,0,0,0,0,0,-2.0271,-2.0271,-2.0275,-2.0235,-2.0226,-2.0194,-2.0187,-2.0217,-2.0148,-2.0148,-2.0138,-2.0133,-2.0092,-2.0092,-2.0091,-2.0141,-2.0058,-2.0059,-2.0061,-2.0061,-2.0265,-2.0269,0,0,0,0,0,0,-2.0283,-2.0273,-2.0277,-2.0274,-2.0236,-2.0198,-2.0189,-2.0197,-2.0147,-2.0135,-2.0137,-2.0127,-2.0091,-2.0089,-2.0088,-2.0194,-2.006,-2.0061,-2.0062,-2.026,-2.0266,-2.027,0,0,0,0,0,0,-2.0283,-2.0285,-2.0279,-2.027,-2.0267,-2.0202,-2.0211,-2.0198,-2.0197,-2.0139,-2.0126,-2.015,-2.0087,-2.0086,-2.0132,-2.0191,-2.0062,-2.0064,-2.0255,-2.0262,-2.0268,-2.0407,0,0,0,0,0,0,-2.0284,-2.0285,-2.032,-2.0272,-2.0268,-2.0324,-2.0215,-2.02,-2.0201,-2.0188,-2.0147,-2.0137,-2.0084,-2.013,-2.0134,-2.0191,-2.0065,-2.025,-2.0258,-2.0266,-2.0397,-2.0418,-2.0435,0,0,0,0,0,-2.0284,-2.0363,-2.0323,-2.0324,-2.031,-2.0328,-2.0325,-2.0262,-2.0206,-2.024,-2.0202,-2.0138,-2.0184,-2.0136,-2.0139,-2.0197,-2.0246,-2.0256,-2.0265,-2.0389,-2.0414,-2.0435,0,0,0,0,0,0,-2.0421,-2.0355,-2.031,-2.0376,-2.0358,-2.0305,-2.0347,-2.0291,-2.029,-2.0278,-2.02,-2.0192,-2.0249,-2.0228,-2.0176,-2.0285,-2.0204,-2.0215,-2.0297,-2.032,-2.0339,-2.0343,-2.0067,0,0,0,0,0,-2.0458,-2.0477,-2.0419,-2.0482,-2.0476,-2.0414,-2.0419,-2.0371,-2.035,-2.0342,-2.0308,-2.0291,-2.0301,-2.0309,-2.0315,-2.0393,-2.0382,-2.0435,-2.0454,-2.047,-2.048,-2.0519,-2.0541,-2.0302,-2.0302,-2.0302,0,0,-2.0537,-2.0503,-2.052,-2.0509,-2.049,-2.0511,-2.0408,-2.0436,-2.0451,-2.0347,-2.0388,-2.0362,-2.0338,-2.04,-2.0426,-2.0384,-2.0543,-2.0482,-2.0495,-2.0497,-2.0531,-2.0554,-2.0574,-2.0309,-2.0308,-2.0307,0,0,-2.069,-2.0667,-2.0716,-2.0699,-2.0671,-2.0628,-2.0641,-2.0596,-2.0574,-2.0614,-2.0536,-2.0554,-2.0573,-2.0558,-2.0554,-2.0701,-2.0641,-2.0705,-2.0805,-2.0843,-2.0862,-2.0878,-2.093,-2.095,-2.0715,-2.0716,-2.0716,0,-2.0791,-2.082,-2.075,-2.0781,-2.0779,-2.0684,-2.0734,-2.0721,-2.0697,-2.0697,-2.065,-2.0672,-2.0649,-2.0706,-2.0741,-2.0741,-2.0752,-2.0709,-2.0865,-2.088,-2.0895,-2.0943,-2.0963,-2.0724,-2.0723,-2.0722,-2.0721,0,-2.0946,-2.0967,-2.101,-2.0988,-2.099,-2.1031,-2.0967,-2.0978,-2.093,-2.0893,-2.0935,-2.0903,-2.0901,-2.0911,-2.0866,-2.0962,-2.0936,-2.0879,-2.0796,-2.0926,-2.0971,-2.0989,-2.0735,-2.0732,-2.073,-2.0728,0,0,-2.1185,-2.1121,-2.1139,-2.1127,-2.1088,-2.1103,-2.114,-2.1136,-2.1147,-2.1133,-2.1162,-2.118,-2.1125,-2.112,-2.1072,-2.1106,-2.1223,-2.1043,-2.1041,-2.1077,-2.1327,-2.137,-2.1393,-2.1183,-2.1186,-2.1189,-2.1328,0,-2.1329,-2.1386,-2.1324,-2.1395,-2.1413,-2.1323,-2.1354,-2.1335,-2.1301,-2.1312,-2.1274,-2.1288,-2.1215,-2.1211,-2.1241,-2.1203,-2.1272,-2.1192,-2.1209,-2.1211,-2.1218,-2.1416,-2.1463,-2.1596,-2.1345,-2.1348,-2.135,0,-2.1504,-2.1497,-2.157,-2.1525,-2.1531,-2.1561,-2.1551,-2.1563,-2.1538,-2.1511,-2.1505,-2.1446,-2.1479,-2.1398,-2.1442,-2.1389,-2.1392,-2.1375,-2.1378,-2.1377,-2.1289,-2.1421,-2.1637,-2.1657,-2.1377,-2.1375,-2.1373,0,-2.1671,-2.168,-2.1724,-2.1717,-2.1666,-2.1689,-2.1669,-2.164,-2.1641,-2.1634,-2.1634,-2.1631,-2.163,-2.1629,-2.1571,-2.1518,-2.1622,-2.1537,-2.1601,-2.1602,-2.1627,-2.1626,-2.1846,-2.163,-2.163,-2.1629,-2.1629,0,-2.1838,-2.1886,-2.1798,-2.1825,-2.1876,-2.1803,-2.1856,-2.1827,-2.1802,-2.1822,-2.1744,-2.1765,-2.1687,-2.17,-2.1654,-2.1697,-2.1697,-2.1676,-2.1664,-2.1683,-2.1686,-2.1684,-2.1674,-2.1634,-2.1633,-2.1632,-2.1631,0,-2.2033,-2.1976,-2.2018,-2.1966,-2.1954,-2.1994,-2.1949,-2.1972,-2.1933,-2.1959,-2.1961,-2.19,-2.191,-2.1852,-2.1853,-2.1822,-2.1887,-2.1859,-2.1896,-2.1887,-2.1954,-2.1948,-2.2181,-2.2207,-2.1975,-2.1977,-2.1979,0,-2.2143,-2.2178,-2.2129,-2.2136,-2.212,-2.2133,-2.2134,-2.2063,-2.2067,-2.2041,-2.2068,-2.2071,-2.2071,-2.2092,-2.2048,-2.2048,-2.2018,-2.21,-2.2018,-2.2036,-2.2019,-2.2018,-2.202,-2.2117,-2.212,-2.2122,-2.2124,0,-2.2345,-2.2315,-2.2318,-2.2312,-2.2315,-2.2306,-2.2293,-2.2304,-2.2228,-2.2236,-2.2245,-2.2245,-2.2244,-2.2249,-2.224,-2.2219,-2.216,-2.215,-2.2165,-2.2185,-2.2205,-2.2194,-2.1942,-2.2145,-2.2143,-2.2142,-2.2141,-2.214,-2.25,-2.2526,-2.2496,-2.2502,-2.2484,-2.2473,-2.2492,-2.2454,-2.246,-2.2454,-2.2412,-2.2429,-2.2402,-2.2383,-2.2369,-2.2381,-2.2342,-2.2364,-2.2369,-2.2375,-2.2387,-2.2203,-2.2379,-2.2378,-2.2378,-2.2377,-2.2377,0,-2.2698,-2.2673,-2.2679,-2.2662,-2.2667,-2.2609,-2.2591,-2.2599,-2.2615,-2.2595,-2.2595,-2.2605,-2.2609,-2.2565,-2.2563,-2.2582,-2.2554,-2.2584,-2.2581,-2.2578,-2.2422,-2.2409,-2.2606,-2.2606,-2.2606,-2.2606,-2.2606,-2.2606,-2.2801,-2.2841,-2.2807,-2.2838,-2.2813,-2.2828,-2.2823,-2.2812,-2.2795,-2.281,-2.2812,-2.2783,-2.2753,-2.2748,-2.2749,-2.2736,-2.2739,-2.2778,-2.2755,-2.2611,-2.2589,-2.2568,-2.2555,-2.2779,-2.2779,-2.2909,-2.2911,-2.2912]},{"header":{"parameterUnit":"m.s-1","parameterCategory":1,"la1":30.2991,"la2":30.254,"lo1":-89.0895,"lo2":-89.0444,"dy":0.0017,"dx":0.0017,"nx":28,"ny":28,"refTime":"2023-09-15T09:00:00:Z","depth":0,"parameterNumber":3,"parameterNumberName":"V-component_of_WINDS"},"data":[0,0,0,0,0,0,0,0,0,0,0,0,0,0,0,0,0,0,0,0,0,0,0,0,0,0,0,0,0,0,0,0,0,0,0,0,0,0,0,0,0,0,0,0,0,0,0,0,0,0,0,0,0,0,0,0,0,0,-2.9651,-2.9651,0,-2.9712,-2.9713,-2.9714,-2.9718,-2.9717,-2.9717,-2.9716,-2.9775,-2.9777,-2.9779,0,0,0,0,0,0,0,0,0,0,0,0,0,-2.9531,-2.9533,-2.9651,-2.9651,-2.9652,-2.9712,-2.9713,-2.9714,-2.9718,-2.9717,-2.9717,-2.9716,-2.9774,-2.9777,-2.978,0,0,0,0,0,0,0,0,0,0,0,0,0,-2.9587,-2.9534,-2.965,-2.9662,-2.9663,-2.9712,-2.9713,-2.9714,-2.9718,-2.9717,-2.9716,-2.9715,-2.9774,-2.9777,-2.978,-2.982,0,0,-2.979,-2.9792,0,0,0,0,0,0,0,0,-2.9584,-2.9591,-2.9659,-2.9661,-2.9663,-2.9707,-2.9693,-2.975,-2.9719,-2.9697,-2.9716,-2.9715,-2.9753,-2.9758,-2.9771,-2.9823,-2.9826,-2.979,-2.9792,-2.9794,-2.9795,0,0,0,0,0,0,0,-2.958,-2.9588,-2.9675,-2.966,-2.9662,-2.9662,-2.9669,-2.9703,-2.973,-2.9699,-2.97,-2.9707,-2.9754,-2.9768,-2.9773,-2.9827,-2.979,-2.9793,-2.9795,-2.9797,-2.9912,-2.9913,0,0,0,0,0,0,-2.9574,-2.9585,-2.9673,-2.9677,-2.962,-2.9665,-2.9672,-2.9693,-2.973,-2.9734,-2.9708,-2.9707,-2.9763,-2.9769,-2.9775,-2.9823,-2.9794,-2.9797,-2.9799,-2.9911,-2.9912,-2.9913,0,0,0,0,0,0,-2.9572,-2.9582,-2.967,-2.9631,-2.9642,-2.9668,-2.9692,-2.9695,-2.971,-2.9736,-2.974,-2.9718,-2.9763,-2.977,-2.9809,-2.9825,-2.9798,-2.9801,-2.9909,-2.9911,-2.9912,-2.992,0,0,0,0,0,0,-2.9568,-2.9581,-2.9598,-2.9632,-2.9644,-2.9705,-2.9693,-2.9697,-2.9716,-2.9716,-2.9747,-2.9751,-2.9762,-2.9804,-2.9812,-2.9829,-2.9804,-2.9908,-2.991,-2.9912,-2.9918,-2.9922,-2.9924,0,0,0,0,0,-2.9564,-2.9598,-2.9599,-2.961,-2.9667,-2.9706,-2.9713,-2.9726,-2.9717,-2.9734,-2.975,-2.975,-2.9822,-2.9808,-2.9817,-2.9835,-2.9907,-2.9909,-2.9912,-2.9917,-2.9921,-2.9924,0,0,0,0,0,0,-2.9565,-2.9602,-2.9604,-2.965,-2.9675,-2.9707,-2.9728,-2.973,-2.9757,-2.9756,-2.977,-2.9777,-2.9814,-2.9829,-2.9812,-2.9875,-2.9863,-2.9868,-2.9864,-2.9868,-2.9871,-2.9866,-2.9807,0,0,0,0,0,-2.957,-2.9601,-2.9631,-2.9668,-2.9681,-2.9702,-2.972,-2.9728,-2.9753,-2.9763,-2.9783,-2.9807,-2.9834,-2.9852,-2.9879,-2.9921,-2.9926,-2.9937,-2.994,-2.9943,-2.9946,-2.9967,-2.9971,-2.9921,-2.9921,-2.9921,0,0,-2.9582,-2.9606,-2.9624,-2.9669,-2.9689,-2.9718,-2.9711,-2.9743,-2.9764,-2.9768,-2.9805,-2.982,-2.9847,-2.9887,-2.9905,-2.99,-2.9961,-2.9946,-2.9948,-2.995,-2.997,-2.9974,-2.9979,-2.9923,-2.9922,-2.9922,0,0,-2.9617,-2.964,-2.9672,-2.9692,-2.9723,-2.9737,-2.9745,-2.9776,-2.9786,-2.9824,-2.9827,-2.9852,-2.99,-2.9918,-2.9934,-2.9975,-2.9975,-2.9983,-2.9998,-3.0018,-3.0022,-3.0026,-3.0038,-3.0043,-2.9986,-2.9986,-2.9986,0,-2.9627,-2.9673,-2.9688,-2.9719,-2.9738,-2.9744,-2.9775,-2.9794,-2.9832,-2.9843,-2.9837,-2.9896,-2.9915,-2.9958,-2.9968,-2.9981,-2.9988,-2.9979,-3.0021,-3.0024,-3.0028,-3.004,-3.0045,-2.9987,-2.9987,-2.9987,-2.9987,0,-2.9683,-2.9714,-2.9736,-2.9773,-2.9794,-2.9825,-2.9843,-2.9862,-2.9868,-2.9881,-2.9919,-2.9941,-2.9972,-2.9983,-2.9989,-3.0026,-3.0022,-3.0018,-3.0007,-3.0033,-3.0044,-3.0049,-2.9988,-2.9988,-2.9987,-2.9987,0,0,-2.972,-2.9765,-2.9772,-2.9788,-2.9822,-2.9845,-2.9876,-2.9907,-2.9922,-2.9947,-2.9972,-3.0011,-3.0008,-3.0025,-3.0033,-3.0051,-3.0079,-3.0045,-3.0046,-3.0049,-3.0119,-3.012,-3.0125,-3.008,-3.0081,-3.0081,-3.0116,0,-2.9758,-2.9814,-2.9828,-2.9875,-2.9902,-2.9908,-2.9934,-2.9956,-2.9969,-2.9993,-3.0007,-3.0034,-3.0029,-3.0039,-3.0057,-3.0072,-3.0093,-3.007,-3.01,-3.0101,-3.0092,-3.0132,-3.0134,-3.0165,-3.0121,-3.0121,-3.0122,0,-2.981,-2.9837,-2.9887,-2.9916,-2.9928,-2.9951,-2.998,-3.0003,-3.0028,-3.0036,-3.0055,-3.006,-3.009,-3.0078,-3.0117,-3.0101,-3.0114,-3.0123,-3.0124,-3.0127,-3.0112,-3.0133,-3.0176,-3.018,-3.0129,-3.0129,-3.0128,0,-2.9831,-2.9879,-2.9915,-2.9929,-2.9963,-2.9979,-2.9994,-3.0018,-3.0035,-3.0059,-3.007,-3.0097,-3.0111,-3.0131,-3.0143,-3.0133,-3.018,-3.017,-3.0186,-3.0186,-3.0195,-3.0194,-3.0238,-3.0206,-3.0206,-3.0206,-3.0206,0,-2.9871,-2.9901,-2.9924,-2.9946,-2.9979,-2.9993,-3.0024,-3.0039,-3.006,-3.0083,-3.0089,-3.011,-3.0125,-3.0148,-3.0157,-3.0187,-3.0194,-3.0199,-3.0201,-3.0198,-3.0197,-3.0206,-3.0204,-3.0207,-3.0207,-3.0207,-3.0206,0,-2.9899,-2.9916,-2.9955,-2.9984,-2.9992,-3.0015,-3.0039,-3.0059,-3.0072,-3.0101,-3.0108,-3.0128,-3.0155,-3.0169,-3.0202,-3.0208,-3.0241,-3.0243,-3.0233,-3.0234,-3.0249,-3.0247,-3.0299,-3.0306,-3.027,-3.0271,-3.0271,0,-2.9923,-2.9946,-2.9977,-2.9994,-3.0009,-3.0036,-3.0053,-3.0067,-3.0085,-3.0114,-3.013,-3.0157,-3.0179,-3.0221,-3.0238,-3.0262,-3.0263,-3.028,-3.0267,-3.0263,-3.0261,-3.0259,-3.0261,-3.0282,-3.0282,-3.0283,-3.0283,0,-2.9962,-2.9969,-2.9995,-3.0024,-3.0045,-3.0067,-3.009,-3.0102,-3.012,-3.0139,-3.0167,-3.0184,-3.0218,-3.0244,-3.027,-3.0283,-3.0285,-3.0287,-3.0292,-3.0288,-3.0281,-3.0283,-3.0238,-3.0285,-3.0285,-3.0285,-3.0285,-3.0285,-2.9988,-3.0008,-3.0033,-3.0061,-3.0079,-3.0099,-3.0119,-3.0135,-3.0159,-3.0188,-3.0195,-3.0223,-3.0245,-3.028,-3.0294,-3.0315,-3.0312,-3.0319,-3.0321,-3.0322,-3.0322,-3.0279,-3.032,-3.032,-3.032,-3.032,-3.032,0,-3.0026,-3.0043,-3.0068,-3.0099,-3.0121,-3.0122,-3.0146,-3.0163,-3.0189,-3.021,-3.0232,-3.0263,-3.0288,-3.0306,-3.0331,-3.0344,-3.0345,-3.035,-3.0348,-3.0351,-3.0324,-3.0317,-3.0348,-3.0348,-3.0348,-3.0348,-3.0348,-3.0348,-3.0049,-3.0082,-3.0092,-3.0133,-3.0149,-3.0178,-3.0192,-3.0209,-3.0226,-3.026,-3.0282,-3.0294,-3.0312,-3.0338,-3.0361,-3.0365,-3.0373,-3.0377,-3.0381,-3.0356,-3.0353,-3.035,-3.0343,-3.0379,-3.0379,-3.0406,-3.0406,-3.0406]}]]